Location: Vinland
(47.7731°N, 122.6974°W)
Time: 09:10:12
(UTC+00:00)

S-56A Canister/Altair - Visible Passes

Search period start: 29 March 2023 00:00
Search period end: 08 April 2023 00:00
Orbit: 639 x 2493 km, 38.9° (Epoch: 28 March)

Date Brightness Start Highest point End Pass type
(mag) Time Alt. Az. Time Alt. Az. Time Alt. Az.
29 Mar 9.9 04:14:23 10° WSW 04:26:21 59° S 04:35:59 25° ESE visible
29 Mar 10.0 06:18:58 10° W 06:32:03 50° SSW 06:33:22 50° S visible
29 Mar 11.0 08:25:18 10° W 08:30:45 22° WSW 08:30:45 22° WSW visible
30 Mar 9.9 03:41:28 10° WSW 03:52:49 58° S 04:04:37 18° ESE visible
30 Mar 10.0 05:45:45 10° W 05:58:28 52° SSW 06:02:00 46° SSE visible
30 Mar 10.8 07:51:36 10° W 07:59:24 28° WSW 07:59:24 28° WSW visible
31 Mar 9.9 03:08:37 10° WSW 03:19:21 57° S 03:33:15 11° E visible
31 Mar 10.0 05:12:37 10° W 05:24:53 54° SSW 05:30:38 38° SE visible
31 Mar 10.6 07:18:02 10° W 07:28:02 33° SW 07:28:02 33° SW visible
01 Apr 10.0 04:39:33 10° W 04:51:20 55° S 04:59:17 30° SE visible
01 Apr 10.4 06:44:36 10° W 06:56:34 37° SSW 06:56:40 37° SSW visible
01 Apr 11.5 08:53:43 10° WSW 08:54:04 10° WSW 08:54:04 10° WSW visible
02 Apr 10.0 04:06:35 10° W 04:17:49 56° S 04:27:57 22° ESE visible
02 Apr 10.3 06:11:17 10° W 06:23:05 39° SSW 06:25:20 37° SSW visible
02 Apr 11.3 08:19:13 10° W 08:22:44 15° WSW 08:22:44 15° WSW visible
03 Apr 10.0 03:33:42 10° W 03:44:20 56° S 03:56:38 15° ESE visible
03 Apr 10.3 05:38:05 10° W 05:49:37 41° SSW 05:54:01 35° S visible
03 Apr 11.1 07:45:08 10° W 07:51:25 19° WSW 07:51:25 19° WSW visible
04 Apr 9.9 03:00:54 10° WSW 03:10:56 56° S 03:24:40 10° ESE visible
04 Apr 10.3 05:04:58 10° W 05:16:09 43° SSW 05:22:43 29° SSE visible
04 Apr 10.9 07:11:19 10° W 07:20:08 22° SW 07:20:08 22° SW visible
05 Apr 10.2 04:31:57 10° W 04:42:41 45° SSW 04:51:28 23° SE visible
05 Apr 10.8 06:37:42 10° W 06:47:21 24° SW 06:48:52 24° SSW visible
06 Apr 10.2 03:59:02 10° W 04:09:17 46° SSW 04:20:16 16° SE visible
06 Apr 10.8 06:04:16 10° W 06:14:01 26° SW 06:17:40 24° SSW visible
07 Apr 10.1 03:26:11 10° W 03:35:54 47° SSW 03:49:05 10° SE visible
07 Apr 10.7 05:31:00 10° W 05:40:41 28° SW 05:46:30 22° S visible
